CSN335 ZGHA-VVNB

Flight info

Callsign CSN335
Flight time 1h 38m
Altitude 34100
Route K0935S1040 OLT7W OLTUS DCT LLC R343 WUY R474 TEBAK/K0937F341 R474 NAKHA NAKHA3F
Aircraft A359/H-SDE2E3GHIJ3J4J5LM1ORWXY/LB1D1

Departure

Time 2026-05-01 07:31
Airport Changsha Huanghua International Airport (ZGHA)

Arrival

Time 2026-05-01 09:09
Airport Noi Bai International Airport (VVNB)
Time Latitude Longitude Altitude Speed Heading
2026-05-01 07:23 28.18725 113.21718 220 ft 4 kts 294°
2026-05-01 07:23 28.18846 113.21681 225 ft 12 kts
2026-05-01 07:24 28.18936 113.21677 222 ft 14 kts 357°
2026-05-01 07:24 28.19049 113.21670 226 ft 18 kts 357°
2026-05-01 07:24 28.19171 113.21663 223 ft 18 kts 357°
2026-05-01 07:24 28.19309 113.21655 221 ft 22 kts 357°
2026-05-01 07:25 28.19397 113.21695 228 ft 12 kts 74°
2026-05-01 07:25 28.19443 113.21756 227 ft 11 kts 10°
2026-05-01 07:25 28.19531 113.21752 224 ft 13 kts 358°
2026-05-01 07:25 28.19636 113.21745 224 ft 17 kts 356°
2026-05-01 07:26 28.19753 113.21738 224 ft 18 kts 357°
2026-05-01 07:26 28.19892 113.21729 224 ft 22 kts 356°
2026-05-01 07:26 28.20011 113.21722 224 ft 14 kts 358°
2026-05-01 07:26 28.20062 113.21795 222 ft 14 kts 83°
2026-05-01 07:27 28.20070 113.21915 226 ft 17 kts 86°
2026-05-01 07:27 28.20080 113.22052 224 ft 17 kts 72°
2026-05-01 07:27 28.20181 113.22095 224 ft 15 kts 356°
2026-05-01 07:27 28.20299 113.22087 224 ft 19 kts 357°
2026-05-01 07:28 28.20430 113.22079 224 ft 20 kts 356°
2026-05-01 07:28 28.20582 113.22069 226 ft 23 kts 356°
2026-05-01 07:28 28.20731 113.22060 225 ft 11 kts 357°
2026-05-01 07:28 28.20819 113.22055 222 ft 15 kts 357°
2026-05-01 07:29 28.20896 113.22079 224 ft 6 kts 62°
2026-05-01 07:29 28.20897 113.22133 221 ft 8 kts 95°
2026-05-01 07:29 28.20891 113.22209 224 ft 11 kts 106°
2026-05-01 07:29 28.20854 113.22245 228 ft 11 kts 160°
2026-05-01 07:30 28.20767 113.22253 224 ft 12 kts 177°
2026-05-01 07:30 28.20542 113.22267 222 ft 65 kts 177°
2026-05-01 07:30 28.19853 113.22309 226 ft 132 kts 177°
2026-05-01 07:30 28.18756 113.22375 454 ft 168 kts 177°
2026-05-01 07:31 28.17648 113.22427 1473 ft 155 kts 177°
2026-05-01 07:31 28.14241 113.22479 3482 ft 178 kts 180°
2026-05-01 07:32 28.11531 113.22540 4676 ft 206 kts 179°
2026-05-01 07:32 28.10087 113.22583 5487 ft 211 kts 180°
2026-05-01 07:33 28.07105 113.22690 7143 ft 219 kts 180°
2026-05-01 07:33 28.05577 113.22788 8003 ft 221 kts 180°
2026-05-01 07:33 28.02459 113.22986 9814 ft 228 kts 181°
2026-05-01 07:34 28.00865 113.23085 10583 ft 232 kts 181°
2026-05-01 07:34 27.98143 113.23236 11895 ft 238 kts 184°
2026-05-01 07:34 27.96527 113.22914 12674 ft 236 kts 206°
2026-05-01 07:35 27.95222 113.21828 13477 ft 235 kts 232°
2026-05-01 07:35 27.94514 113.20161 14243 ft 239 kts 258°
2026-05-01 07:35 27.94390 113.18280 15013 ft 242 kts 268°
2026-05-01 07:35 27.94511 113.16368 15764 ft 247 kts 278°
2026-05-01 07:36 27.95168 113.14549 16482 ft 257 kts 300°
2026-05-01 07:36 27.96511 113.13131 17115 ft 278 kts 324°
2026-05-01 07:36 27.98454 113.12467 17447 ft 308 kts 349°
2026-05-01 07:36 28.00664 113.12328 17801 ft 328 kts 353°
2026-05-01 07:37 28.05302 113.12142 18450 ft 359 kts 352°
2026-05-01 07:37 28.07727 113.11931 18732 ft 371 kts 346°
2026-05-01 07:37 28.10211 113.11096 19000 ft 376 kts 329°
2026-05-01 07:38 28.12381 113.09435 19264 ft 380 kts 312°
2026-05-01 07:38 28.14019 113.07081 19510 ft 384 kts 295°
2026-05-01 07:38 28.15080 113.01193 20293 ft 388 kts 262°
2026-05-01 07:39 28.14430 112.98230 20790 ft 390 kts 251°
2026-05-01 07:39 28.13747 112.95240 21274 ft 395 kts 261°
2026-05-01 07:39 28.13863 112.88954 22298 ft 403 kts 272°
2026-05-01 07:40 28.14057 112.85806 22783 ft 407 kts 272°
2026-05-01 07:40 28.14250 112.82595 23285 ft 410 kts 272°
2026-05-01 07:40 28.14441 112.79348 23743 ft 413 kts 272°
2026-05-01 07:40 28.14630 112.76096 24166 ft 416 kts 272°
2026-05-01 07:41 28.14819 112.72812 24608 ft 418 kts 272°
2026-05-01 07:41 28.15008 112.69516 25093 ft 421 kts 272°
2026-05-01 07:41 28.15389 112.62852 26099 ft 426 kts 272°
2026-05-01 07:42 28.15579 112.59494 26652 ft 429 kts 272°
2026-05-01 07:42 28.15770 112.56109 27144 ft 431 kts 272°
2026-05-01 07:42 28.15961 112.52703 27671 ft 434 kts 272°
2026-05-01 07:42 28.16149 112.49332 28167 ft 437 kts 272°
2026-05-01 07:43 28.16341 112.45873 28665 ft 440 kts 272°
2026-05-01 07:43 28.16533 112.42399 29146 ft 443 kts 272°
2026-05-01 07:43 28.16254 112.35409 30048 ft 448 kts 258°
2026-05-01 07:44 28.14006 112.28787 30786 ft 456 kts 240°
2026-05-01 07:44 28.09845 112.23293 31513 ft 468 kts 222°
2026-05-01 07:45 28.07255 112.21034 31849 ft 472 kts 220°
2026-05-01 07:45 28.04551 112.18889 32181 ft 477 kts 217°
2026-05-01 07:45 28.01716 112.16914 32512 ft 480 kts 214°
2026-05-01 07:45 27.98813 112.15013 32835 ft 483 kts 214°
2026-05-01 07:46 27.95901 112.13128 33245 ft 482 kts 214°
2026-05-01 07:46 27.93005 112.11225 33718 ft 481 kts 215°
2026-05-01 07:46 27.87326 112.07337 33993 ft 477 kts 216°
2026-05-01 07:47 27.84508 112.05366 33997 ft 476 kts 216°
2026-05-01 07:47 27.78871 112.01406 33995 ft 476 kts 216°
2026-05-01 07:48 27.70427 111.95505 33995 ft 475 kts 216°
2026-05-01 07:48 27.64806 111.91579 33991 ft 475 kts 216°
2026-05-01 07:49 27.56379 111.85711 33991 ft 474 kts 215°
2026-05-01 07:50 27.50763 111.81809 33992 ft 474 kts 216°
2026-05-01 07:50 27.42332 111.75966 33989 ft 474 kts 216°
2026-05-01 07:51 27.36740 111.72086 33992 ft 475 kts 215°
2026-05-01 07:52 27.28296 111.66246 33990 ft 475 kts 215°
2026-05-01 07:52 27.22670 111.62359 33987 ft 475 kts 215°
2026-05-01 07:53 27.14212 111.56561 33989 ft 475 kts 214°
2026-05-01 07:53 27.08502 111.52809 33990 ft 476 kts 214°
2026-05-01 07:55 26.94213 111.43456 33982 ft 475 kts 214°
2026-05-01 07:56 26.80328 111.33532 33984 ft 474 kts 217°
2026-05-01 07:57 26.72090 111.27399 33977 ft 474 kts 217°
2026-05-01 07:58 26.61056 111.19323 33979 ft 473 kts 217°
2026-05-01 07:59 26.49945 111.11526 33977 ft 473 kts 214°
2026-05-01 08:00 26.33113 111.00136 33977 ft 470 kts 215°
2026-05-01 08:01 26.21933 110.92533 33989 ft 471 kts 214°
2026-05-01 08:02 26.13547 110.86844 33997 ft 470 kts 215°
2026-05-01 08:03 26.05165 110.81171 33997 ft 471 kts 215°
2026-05-01 08:03 25.96755 110.75466 34004 ft 473 kts 215°
2026-05-01 08:04 25.85544 110.67860 34005 ft 472 kts 215°
2026-05-01 08:05 25.77129 110.62169 34006 ft 472 kts 214°
2026-05-01 08:06 25.68746 110.56441 34007 ft 472 kts 215°
2026-05-01 08:07 25.57678 110.48721 34012 ft 472 kts 215°
2026-05-01 08:08 25.49416 110.42801 34007 ft 471 kts 217°
2026-05-01 08:09 25.38543 110.34690 34006 ft 471 kts 217°
2026-05-01 08:09 25.33115 110.30632 34006 ft 471 kts 217°
2026-05-01 08:10 25.22239 110.22538 33989 ft 471 kts 217°
2026-05-01 08:11 25.11372 110.14444 33986 ft 471 kts 217°
2026-05-01 08:12 25.03223 110.08360 33991 ft 472 kts 217°
2026-05-01 08:13 24.95059 110.02283 33997 ft 472 kts 217°
2026-05-01 08:13 24.86912 109.96233 34007 ft 473 kts 217°
2026-05-01 08:14 24.81449 109.92178 34003 ft 473 kts 217°
2026-05-01 08:14 24.75990 109.88132 34006 ft 473 kts 217°
2026-05-01 08:15 24.67803 109.82073 34002 ft 473 kts 217°
2026-05-01 08:16 24.62332 109.78019 34004 ft 474 kts 217°
2026-05-01 08:16 24.56879 109.73957 34005 ft 474 kts 217°
2026-05-01 08:17 24.51419 109.69893 33998 ft 474 kts 217°
2026-05-01 08:17 24.45963 109.65837 33995 ft 474 kts 217°
2026-05-01 08:18 24.40493 109.61777 33997 ft 474 kts 217°
2026-05-01 08:19 24.29578 109.53722 34000 ft 474 kts 217°
2026-05-01 08:19 24.24093 109.49682 33995 ft 475 kts 217°
2026-05-01 08:20 24.18610 109.45645 33996 ft 475 kts 217°
2026-05-01 08:20 24.14050 109.42292 33994 ft 475 kts 217°
2026-05-01 08:21 24.08556 109.38256 33994 ft 475 kts 217°
2026-05-01 08:21 24.03065 109.34228 34007 ft 475 kts 217°
2026-05-01 08:22 23.97580 109.30207 33992 ft 475 kts 217°
2026-05-01 08:22 23.92070 109.26172 34004 ft 476 kts 217°
2026-05-01 08:23 23.86571 109.22150 34001 ft 476 kts 217°
2026-05-01 08:23 23.81064 109.18127 33999 ft 475 kts 217°
2026-05-01 08:24 23.75559 109.14107 34010 ft 476 kts 217°
2026-05-01 08:24 23.70279 109.09783 34007 ft 474 kts 221°
2026-05-01 08:25 23.65194 109.05280 33999 ft 474 kts 222°
2026-05-01 08:25 23.60048 109.00785 33998 ft 474 kts 221°
2026-05-01 08:26 23.54859 108.96340 34001 ft 474 kts 221°
2026-05-01 08:26 23.49654 108.91917 34007 ft 474 kts 221°
2026-05-01 08:27 23.44446 108.87495 34009 ft 474 kts 221°
2026-05-01 08:27 23.39238 108.83078 34002 ft 474 kts 221°
2026-05-01 08:28 23.34031 108.78660 34010 ft 474 kts 221°
2026-05-01 08:28 23.28826 108.74247 34012 ft 474 kts 221°
2026-05-01 08:29 23.23656 108.69869 34005 ft 474 kts 221°
2026-05-01 08:29 23.18457 108.65461 34014 ft 474 kts 220°
2026-05-01 08:30 23.13260 108.61056 34005 ft 473 kts 220°
2026-05-01 08:30 23.08067 108.56658 34011 ft 474 kts 220°
2026-05-01 08:31 23.02868 108.52262 34007 ft 474 kts 220°
2026-05-01 08:31 22.97663 108.47867 34009 ft 474 kts 220°
2026-05-01 08:32 22.92461 108.43478 34008 ft 474 kts 220°
2026-05-01 08:32 22.87285 108.39116 34010 ft 474 kts 220°
2026-05-01 08:33 22.82082 108.34734 34004 ft 474 kts 220°
2026-05-01 08:33 22.76873 108.30351 34012 ft 474 kts 220°
2026-05-01 08:34 22.71645 108.25958 34008 ft 475 kts 220°
2026-05-01 08:34 22.66419 108.21571 34010 ft 475 kts 220°
2026-05-01 08:35 22.61572 108.16754 34011 ft 472 kts 232°
2026-05-01 08:35 22.58227 108.10768 34014 ft 468 kts 249°
2026-05-01 08:36 22.56552 108.03969 34008 ft 468 kts 258°
2026-05-01 08:36 22.55354 107.97049 34008 ft 468 kts 259°
2026-05-01 08:37 22.54190 107.90122 34003 ft 468 kts 259°
2026-05-01 08:37 22.52988 107.83200 33995 ft 468 kts 259°
2026-05-01 08:38 22.51761 107.76289 33998 ft 468 kts 259°
2026-05-01 08:38 22.50528 107.69384 33995 ft 467 kts 259°
2026-05-01 08:39 22.49293 107.62480 33989 ft 467 kts 259°
2026-05-01 08:39 22.48058 107.55587 33989 ft 467 kts 259°
2026-05-01 08:40 22.46198 107.45235 33989 ft 467 kts 259°
2026-05-01 08:40 22.44964 107.38383 33987 ft 468 kts 259°
2026-05-01 08:41 22.43716 107.31480 33987 ft 468 kts 259°
2026-05-01 08:41 22.42467 107.24583 33990 ft 468 kts 259°
2026-05-01 08:42 22.41222 107.17662 33991 ft 468 kts 259°
2026-05-01 08:42 22.39984 107.10750 33778 ft 470 kts 259°
2026-05-01 08:43 22.39360 107.07273 33526 ft 473 kts 259°
2026-05-01 08:43 22.38733 107.03783 33274 ft 474 kts 259°
2026-05-01 08:43 22.38100 107.00276 33022 ft 476 kts 259°
2026-05-01 08:43 22.37465 106.96764 32762 ft 477 kts 259°
2026-05-01 08:44 22.36813 106.93242 32519 ft 478 kts 258°
2026-05-01 08:44 22.35864 106.89800 32278 ft 480 kts 250°
2026-05-01 08:44 22.34450 106.86575 32040 ft 483 kts 241°
2026-05-01 08:44 22.32517 106.83603 31799 ft 486 kts 231°
2026-05-01 08:45 22.30219 106.80903 31570 ft 489 kts 228°
2026-05-01 08:45 22.27822 106.78292 31329 ft 490 kts 227°
2026-05-01 08:45 22.25381 106.75723 31087 ft 492 kts 226°
2026-05-01 08:45 22.22926 106.73166 30492 ft 489 kts 226°
2026-05-01 08:46 22.20466 106.70603 29401 ft 493 kts 226°
2026-05-01 08:46 22.17972 106.68044 28421 ft 494 kts 223°
2026-05-01 08:46 22.15346 106.65676 27697 ft 490 kts 221°
2026-05-01 08:46 22.12722 106.63364 26986 ft 484 kts 221°
2026-05-01 08:47 22.10122 106.61083 26262 ft 480 kts 221°
2026-05-01 08:47 22.07543 106.58828 25541 ft 476 kts 221°
2026-05-01 08:47 22.04979 106.56590 24835 ft 472 kts 221°
2026-05-01 08:47 22.02439 106.54374 24161 ft 468 kts 221°
2026-05-01 08:48 21.99926 106.52185 23514 ft 463 kts 221°
2026-05-01 08:48 21.97435 106.50015 22762 ft 457 kts 221°
2026-05-01 08:48 21.94990 106.47856 22030 ft 451 kts 223°
2026-05-01 08:48 21.92658 106.45623 21326 ft 445 kts 224°
2026-05-01 08:49 21.90382 106.43405 20600 ft 436 kts 224°
2026-05-01 08:49 21.88201 106.41297 19857 ft 407 kts 224°
2026-05-01 08:49 21.86104 106.39279 19200 ft 404 kts 224°
2026-05-01 08:49 21.84005 106.37263 18534 ft 404 kts 223°
2026-05-01 08:50 21.82049 106.35392 17876 ft 402 kts 223°
2026-05-01 08:50 21.79934 106.33374 17145 ft 398 kts 223°
2026-05-01 08:50 21.77902 106.31438 16479 ft 394 kts 223°
2026-05-01 08:50 21.75861 106.29493 15816 ft 389 kts 223°
2026-05-01 08:51 21.73849 106.27562 15120 ft 384 kts 224°
2026-05-01 08:51 21.72004 106.25502 14449 ft 380 kts 229°
2026-05-01 08:51 21.70271 106.23394 14053 ft 374 kts 230°
2026-05-01 08:51 21.68556 106.21290 13925 ft 374 kts 230°
2026-05-01 08:52 21.66840 106.19186 13913 ft 374 kts 230°
2026-05-01 08:52 21.65121 106.17083 13906 ft 374 kts 230°
2026-05-01 08:52 21.63404 106.14984 13901 ft 374 kts 230°
2026-05-01 08:52 21.61686 106.12886 13909 ft 374 kts 229°
2026-05-01 08:53 21.59967 106.10788 13905 ft 373 kts 230°
2026-05-01 08:53 21.58266 106.08679 13714 ft 372 kts 232°
2026-05-01 08:53 21.56698 106.06483 13023 ft 370 kts 234°
2026-05-01 08:53 21.55173 106.04266 12453 ft 368 kts 234°
2026-05-01 08:54 21.53646 106.02068 11925 ft 366 kts 233°
2026-05-01 08:54 21.52118 105.99892 11474 ft 361 kts 233°
2026-05-01 08:54 21.50647 105.97812 11215 ft 346 kts 233°
2026-05-01 08:54 21.49214 105.95801 10957 ft 333 kts 232°
2026-05-01 08:55 21.47780 105.93909 10734 ft 320 kts 231°
2026-05-01 08:55 21.46415 105.92146 10419 ft 295 kts 231°
2026-05-01 08:55 21.45139 105.90494 9832 ft 280 kts 231°
2026-05-01 08:55 21.43911 105.88897 8955 ft 275 kts 231°
2026-05-01 08:56 21.42712 105.87338 8388 ft 266 kts 231°
2026-05-01 08:56 21.41536 105.85804 8007 ft 267 kts 231°
2026-05-01 08:56 21.40382 105.84299 7773 ft 254 kts 231°
2026-05-01 08:56 21.39283 105.82861 7586 ft 245 kts 232°
2026-05-01 08:57 21.38438 105.81311 7264 ft 237 kts 251°
2026-05-01 08:57 21.38143 105.79601 6936 ft 233 kts 263°
2026-05-01 08:57 21.38003 105.77848 6859 ft 236 kts 263°
2026-05-01 08:57 21.37867 105.76107 6798 ft 233 kts 263°
2026-05-01 08:58 21.37723 105.74374 6721 ft 233 kts 263°
2026-05-01 08:58 21.37570 105.72640 6660 ft 233 kts 263°
2026-05-01 08:58 21.37416 105.70915 6599 ft 233 kts 263°
2026-05-01 08:58 21.37263 105.69207 6535 ft 233 kts 263°
2026-05-01 08:59 21.37109 105.67484 6456 ft 229 kts 263°
2026-05-01 08:59 21.36973 105.65818 6361 ft 221 kts 264°
2026-05-01 08:59 21.37131 105.64187 6264 ft 214 kts 282°
2026-05-01 08:59 21.37540 105.62674 6229 ft 214 kts 285°
2026-05-01 09:00 21.37992 105.61148 6204 ft 215 kts 284°
2026-05-01 09:00 21.38443 105.59614 6058 ft 217 kts 284°
2026-05-01 09:00 21.38895 105.58067 5777 ft 216 kts 284°
2026-05-01 09:00 21.39286 105.56501 5412 ft 214 kts 275°
2026-05-01 09:01 21.39030 105.54971 4974 ft 209 kts 241°
2026-05-01 09:01 21.38049 105.53907 4671 ft 201 kts 207°
2026-05-01 09:01 21.36745 105.53489 4501 ft 192 kts 190°
2026-05-01 09:01 21.35446 105.53255 4277 ft 187 kts 188°
2026-05-01 09:02 21.34173 105.53053 4031 ft 184 kts 186°
2026-05-01 09:02 21.32946 105.53337 3722 ft 183 kts 150°
2026-05-01 09:02 21.32141 105.54371 3467 ft 184 kts 116°
2026-05-01 09:02 21.31620 105.55605 3197 ft 180 kts 124°
2026-05-01 09:03 21.30656 105.56421 3022 ft 177 kts 156°
2026-05-01 09:03 21.29609 105.57114 3000 ft 180 kts 137°
2026-05-01 09:03 21.28807 105.58143 2995 ft 180 kts 128°
2026-05-01 09:03 21.28140 105.59305 2991 ft 182 kts 118°
2026-05-01 09:04 21.27691 105.60569 3000 ft 181 kts 111°
2026-05-01 09:04 21.27313 105.61843 2989 ft 182 kts 111°
2026-05-01 09:04 21.26932 105.63160 2945 ft 183 kts 110°
2026-05-01 09:04 21.26551 105.64461 2740 ft 183 kts 111°
2026-05-01 09:05 21.26181 105.65734 2482 ft 180 kts 110°
2026-05-01 09:05 21.25827 105.66979 2252 ft 169 kts 110°
2026-05-01 09:05 21.25491 105.68143 2040 ft 159 kts 111°
2026-05-01 09:05 21.25176 105.69233 1843 ft 148 kts 110°
2026-05-01 09:06 21.24882 105.70256 1648 ft 138 kts 110°
2026-05-01 09:06 21.24611 105.71202 1462 ft 128 kts 111°
2026-05-01 09:06 21.24349 105.72107 1311 ft 127 kts 110°
2026-05-01 09:06 21.24087 105.73018 1150 ft 127 kts 111°
2026-05-01 09:07 21.23824 105.73922 960 ft 127 kts 109°
2026-05-01 09:07 21.23562 105.74845 758 ft 132 kts 109°
2026-05-01 09:07 21.23305 105.75790 605 ft 131 kts 110°
2026-05-01 09:07 21.23034 105.76724 414 ft 131 kts 109°
2026-05-01 09:08 21.22775 105.77628 230 ft 122 kts 109°
2026-05-01 09:08 21.22512 105.78516 112 ft 128 kts 109°
2026-05-01 09:08 21.22337 105.79117 54 ft 126 kts 110°
2026-05-01 09:08 21.22106 105.79892 48 ft 89 kts 107°
2026-05-01 09:09 21.21965 105.80383 48 ft 48 kts 108°
2026-05-01 09:09 21.21898 105.80615 54 ft 27 kts 107°
2026-05-01 09:09 21.21783 105.80719 50 ft 13 kts 192°
2026-05-01 09:09 21.21734 105.80695 51 ft 12 kts 220°
2026-05-01 09:10 21.21726 105.80613 51 ft 12 kts 285°
2026-05-01 09:10 21.21754 105.80515 50 ft 15 kts 287°
2026-05-01 09:10 21.21799 105.80356 51 ft 19 kts 287°
2026-05-01 09:10 21.21826 105.80262 52 ft 21 kts 287°
2026-05-01 09:11 21.21866 105.80121 53 ft 18 kts 287°
2026-05-01 09:11 21.21879 105.79997 51 ft 13 kts 234°
2026-05-01 09:11 21.21811 105.80001 50 ft 9 kts 129°
2026-05-01 09:11 21.21785 105.80074 53 ft 12 kts 107°
2026-05-01 09:12 21.21758 105.80167 54 ft 14 kts 107°
2026-05-01 09:12 21.21726 105.80277 51 ft 17 kts 107°
2026-05-01 09:12 21.21699 105.80359 51 ft 9 kts 127°
2026-05-01 09:12 21.21655 105.80369 52 ft 7 kts 185°
2026-05-01 09:13 21.21603 105.80353 48 ft 4 kts 195°
2026-05-01 09:13 21.21580 105.80347 53 ft 3 kts 195°
2026-05-01 09:13 21.21579 105.80346 53 ft 0 kts 195°